Regional Weather Roundup
Issued by NWS

Home | Current Version | Previous Version | Graphics & Text | Print | Product List | Glossary On
Versions: 1 2 3 4 5 6 7 8 9 10 11 12 13 14 15 16 17 18 19 20 21 22 23 24 25 26 27 28 29 30 31 32 33 34 35 36 37 38 39 40 41 42 43 44 45 46 47 48 49 50
000
ASUS45 KCYS 201510
RWRWY

WYOMING REGIONAL WEATHER ROUNDUP
NATIONAL WEATHER SERVICE CHEYENNE WY
900 AM MDT MON OCT 20 2014

NOTE:  "FAIR" INDICATES FEW OR NO CLOUDS BELOW 12,000 FEET
WITH NO SIGNIFICANT WEATHER AND/OR OBSTRUCTIONS TO VISIBILITY.

WYZ001-201600-
YELLOWSTONE NATIONAL PARK

CITY           SKY/WX    TMP DP  RH WIND       PRES   REMARKS
LK YELLOWSTONE   N/A     30  25  81 CALM      30.23S
W YELLOWSTONE  NOT AVBL

$$
WYZ002>013-054>058-071-098>099-201600-
NORTHERN WYOMING

CITY           SKY/WX    TMP DP  RH WIND       PRES   REMARKS
JACKSON        SUNNY     30  27  86 VRB5      30.21R WCI  25
CODY           SUNNY    N/A N/A N/A S12       30.03S
GREYBULL       SUNNY     37  28  70 CALM      30.03R
WORLAND        SUNNY     40  31  70 CALM      30.03R
SHERIDAN       MOSUNNY   45  32  60 CALM      29.97S
BUFFALO        SUNNY     60  25  26 W3        30.02R
GILLETTE       SUNNY     51  36  56 S17       30.02R
HULETT         FAIR      52  37  58 CALM      30.03
NEWCASTLE      FAIR      50  36  57 CALM      30.08

$$
WYZ014>020-022>026-101>103-201600-
CENTRAL WYOMING

CITY           SKY/WX    TMP DP  RH WIND       PRES   REMARKS
BIG PINEY      SUNNY     36  25  64 CALM      30.23R
PINEDALE       MOSUNNY   34  27  75 W5        30.23R WCI  30
DUBOIS         FAIR      43  23  45 NW12      30.17R
LANDER         SUNNY     43  30  60 CALM      30.11R
RIVERTON       SUNNY     46  28  49 CALM      30.12R
CASPER         SUNNY     44  32  62 E3        30.11R
DOUGLAS        SUNNY     43  35  73 CALM      30.11S

$$
WYZ021-027>030-104>119-201600-
SOUTHERN WYOMING

CITY           SKY/WX    TMP DP  RH WIND       PRES   REMARKS
EVANSTON       SUNNY     48  30  49 SE5       30.20
KEMMERER       SUNNY     37  30  75 N8        30.22S WCI  31
FORT BRIDGER   FAIR      44  31  60 W5        30.24R
ROCK SPRINGS   SUNNY     42  29  59 CALM      30.20R
DIXON          FAIR      41  33  71 CALM      30.25R
RAWLINS        SUNNY     42  28  57 CALM      30.22R
SARATOGA       FAIR      50  32  50 SE15      30.23S
LARAMIE        SUNNY     44  31  60 S8        30.23R
CHEYENNE       SUNNY     50  36  58 W6        30.18S
TORRINGTON     SUNNY     44  36  73 SE3       30.10S
PINE BLUFFS    FAIR      50  37  62 SW7       30.16S

$$


USA.gov is the U.S. government's official web portal to all federal, state and local government web resources and services.